When you browse on this site, cookies collect data to enhance your experience and personalize the content and advertising you see.
Visit our Privacy Policy to learn more. By continuing to use the site, you agree to this use of cookies and data.
  • In France
  • List of Countries
  • For 7 days
  • Water Temperature
  • Satellite Maps
  • Weather Map
  • Weather Widgets
  • user-avatar
    Login

    Hourly Weather Bouake

    Today, 24 January, Thursday

    Time Temperature Precipitation Wind Pressure Humidity
    00:00 +25°C° 0 mm 0 mps 730 mmHg 21%
    01:00 +25°C° 0 mm 0 mps 729 mmHg 21%
    02:00 +24°C° 0 mm 0 mps 729 mmHg 21%
    03:00 +24°C° 0 mm 0 mps 729 mmHg 22%
    04:00 +25°C° 0 mm 1 mps 729 mmHg 26%
    05:00 +25°C° 0 mm 1 mps 729 mmHg 31%
    06:00 +24°C° 0 mm 1 mps 729 mmHg 38%
    07:00 +26°C° 0 mm 1 mps 729 mmHg 37%
    08:00 +27°C° 0 mm 1 mps 730 mmHg 37%
    09:00 +29°C° 0 mm 2 mps 730 mmHg 37%
    10:00 +31°C° 0 mm 2 mps 730 mmHg 31%
    11:00 +35°C° 0 mm 2 mps 730 mmHg 26%
    12:00 +37°C° 0 mm 2 mps 730 mmHg 20%
    13:00 +37°C° 0 mm 1 mps 729 mmHg 18%
    14:00 +39°C° 0 mm 1 mps 728 mmHg 16%
    15:00 +40°C° 0 mm 1 mps 728 mmHg 14%
    16:00 +39°C° 0 mm 1 mps 727 mmHg 16%
    17:00 +36°C° 0 mm 1 mps 727 mmHg 18%
    18:00 +35°C° 0 mm 1 mps 727 mmHg 19%
    19:00 +34°C° 0 mm 1 mps 728 mmHg 21%
    20:00 +32°C° 0 mm 1 mps 728 mmHg 22%
    21:00 +31°C° 0 mm 1 mps 729 mmHg 24%
    22:00 +30°C° 0 mm 1 mps 729 mmHg 25%
    23:00 +30°C° 0 mm 1 mps 729 mmHg 26%

    Tomorrow, 25 January, Friday

    Time Temperature Precipitation Wind Pressure Humidity
    00:00 +30°C° 0 mm 1 mps 729 mmHg 27%
    01:00 +29°C° 0 mm 1 mps 729 mmHg 41%
    02:00 +28°C° 0 mm 1 mps 729 mmHg 54%
    03:00 +26°C° 0 mm 1 mps 729 mmHg 67%
    04:00 +26°C° 0 mm 2 mps 729 mmHg 74%
    05:00 +26°C° 0 mm 2 mps 729 mmHg 81%
    06:00 +25°C° 0 mm 2 mps 729 mmHg 88%
    07:00 +26°C° 0 mm 2 mps 730 mmHg 82%
    08:00 +28°C° 0 mm 2 mps 730 mmHg 77%
    09:00 +29°C° 0 mm 3 mps 731 mmHg 71%
    10:00 +30°C° 0 mm 2 mps 730 mmHg 65%
    11:00 +31°C° 0 mm 2 mps 730 mmHg 58%
    12:00 +34°C° 0 mm 2 mps 730 mmHg 52%
    13:00 +36°C° 0 mm 2 mps 729 mmHg 44%
    14:00 +37°C° 0 mm 1 mps 729 mmHg 36%
    15:00 +40°C° 0 mm 1 mps 728 mmHg 28%
    16:00 +39°C° 0 mm 1 mps 728 mmHg 29%
    17:00 +36°C° 0 mm 1 mps 727 mmHg 30%
    18:00 +35°C° 0 mm 1 mps 727 mmHg 31%
    19:00 +34°C° 0 mm 1 mps 728 mmHg 33%
    20:00 +33°C° 0 mm 1 mps 728 mmHg 35%
    21:00 +32°C° 0 mm 2 mps 729 mmHg 37%
    22:00 +31°C° 0 mm 1 mps 729 mmHg 38%
    23:00 +30°C° 0 mm 1 mps 729 mmHg 40%

    Day after tomorrow, 26 January, Saturday

    Time Temperature Precipitation Wind Pressure Humidity
    00:00 +30°C° 0 mm 1 mps 729 mmHg 41%
    01:00 +29°C° 0 mm 1 mps 729 mmHg 51%
    02:00 +28°C° 0 mm 2 mps 729 mmHg 61%
    03:00 +27°C° 0 mm 2 mps 728 mmHg 71%
    04:00 +27°C° 0 mm 2 mps 729 mmHg 76%
    05:00 +26°C° 0 mm 1 mps 729 mmHg 81%
    06:00 +26°C° 0 mm 1 mps 729 mmHg 86%
    07:00 +27°C° 0 mm 1 mps 730 mmHg 78%
    08:00 +28°C° 0 mm 2 mps 730 mmHg 70%
    09:00 +30°C° 0 mm 2 mps 731 mmHg 62%
    10:00 +33°C° 0 mm 1 mps 731 mmHg 52%
    11:00 +36°C° 0 mm 1 mps 731 mmHg 41%
    12:00 +39°C° 0 mm 1 mps 731 mmHg 30%
    13:00 +40°C° 0 mm 1 mps 730 mmHg 26%
    14:00 +38°C° 0 mm 0 mps 729 mmHg 23%
    15:00 +39°C° 0 mm 0 mps 728 mmHg 19%
    16:00 +38°C° 0 mm 0 mps 728 mmHg 20%
    17:00 +39°C° 0 mm 1 mps 728 mmHg 20%
    18:00 +37°C° 0 mm 1 mps 728 mmHg 21%
    19:00 +35°C° 0 mm 1 mps 728 mmHg 24%
    20:00 +34°C° 0 mm 1 mps 729 mmHg 27%
    21:00 +32°C° 0 mm 1 mps 729 mmHg 29%
    22:00 +31°C° 0 mm 1 mps 729 mmHg 32%
    23:00 +31°C° 0 mm 1 mps 729 mmHg 34%

    27 January, Sunday

    Time Temperature Precipitation Wind Pressure Humidity
    00:00 +30°C° 0 mm 1 mps 729 mmHg 36%
    01:00 +29°C° 0 mm 1 mps 729 mmHg 48%
    02:00 +28°C° 0 mm 2 mps 729 mmHg 59%
    03:00 +28°C° 0 mm 2 mps 729 mmHg 71%
    04:00 +27°C° 0 mm 2 mps 729 mmHg 76%
    05:00 +27°C° 0 mm 2 mps 729 mmHg 81%
    06:00 +26°C° 0 mm 2 mps 730 mmHg 86%
    07:00 +27°C° 0 mm 2 mps 730 mmHg 80%
    08:00 +28°C° 0 mm 2 mps 731 mmHg 74%
    09:00 +29°C° 0 mm 2 mps 731 mmHg 68%
    10:00 +32°C° 0 mm 1 mps 731 mmHg 55%
    11:00 +36°C° 0 mm 1 mps 731 mmHg 42%
    12:00 +37°C° 0 mm 0 mps 731 mmHg 29%
    13:00 +38°C° 0 mm 0 mps 730 mmHg 25%
    14:00 +38°C° 0 mm 0 mps 729 mmHg 22%
    15:00 +39°C° 0 mm 0 mps 728 mmHg 18%
    16:00 +38°C° 0 mm 0 mps 728 mmHg 19%
    17:00 +39°C° 0 mm 1 mps 727 mmHg 20%
    18:00 +37°C° 0 mm 1 mps 727 mmHg 21%
    19:00 +35°C° 0 mm 1 mps 728 mmHg 25%
    20:00 +34°C° 0 mm 1 mps 728 mmHg 29%
    21:00 +32°C° 0 mm 1 mps 729 mmHg 32%
    22:00 +31°C° 0 mm 1 mps 729 mmHg 35%
    23:00 +31°C° 0 mm 1 mps 729 mmHg 38%

    28 January, Monday

    Time Temperature Precipitation Wind Pressure Humidity
    00:00 +30°C° 0 mm 1 mps 729 mmHg 41%
    01:00 +29°C° 0 mm 1 mps 729 mmHg 47%
    02:00 +29°C° 0 mm 2 mps 728 mmHg 53%
    03:00 +28°C° 0 mm 2 mps 728 mmHg 59%
    04:00 +28°C° 0 mm 2 mps 728 mmHg 65%
    05:00 +27°C° 0 mm 2 mps 729 mmHg 71%
    06:00 +27°C° 0 mm 2 mps 729 mmHg 77%
    07:00 +28°C° 0.1 mm 2 mps 730 mmHg 73%
    08:00 +29°C° 0.1 mm 3 mps 730 mmHg 68%
    09:00 +30°C° 0.1 mm 3 mps 731 mmHg 63%
    10:00 +33°C° 0 mm 3 mps 730 mmHg 56%
    11:00 +34°C° 0 mm 3 mps 730 mmHg 49%
    12:00 +36°C° 0 mm 2 mps 729 mmHg 41%
    13:00 +36°C° 0 mm 2 mps 728 mmHg 39%
    14:00 +37°C° 0 mm 2 mps 728 mmHg 36%
    15:00 +37°C° 0 mm 1 mps 727 mmHg 33%
    16:00 +37°C° 0 mm 2 mps 727 mmHg 34%
    17:00 +36°C° 0 mm 2 mps 727 mmHg 34%
    18:00 +36°C° 0 mm 2 mps 727 mmHg 35%
    19:00 +34°C° 0 mm 1 mps 727 mmHg 36%
    20:00 +32°C° 0 mm 1 mps 728 mmHg 38%
    21:00 +31°C° 0 mm 1 mps 728 mmHg 39%
    22:00 +31°C° 0 mm 1 mps 728 mmHg 42%
    23:00 +30°C° 0 mm 2 mps 729 mmHg 45%

    29 January, Tuesday

    Time Temperature Precipitation Wind Pressure Humidity
    00:00 +30°C° 0 mm 2 mps 729 mmHg 48%
    01:00 +29°C° 0.3 mm 2 mps 728 mmHg 57%
    02:00 +28°C° 0.3 mm 2 mps 728 mmHg 66%
    03:00 +27°C° 0.3 mm 2 mps 728 mmHg 75%
    04:00 +27°C° 0 mm 2 mps 728 mmHg 78%
    05:00 +26°C° 0 mm 2 mps 728 mmHg 81%
    06:00 +26°C° 0 mm 2 mps 729 mmHg 83%
    07:00 +27°C° 0 mm 2 mps 729 mmHg 80%
    08:00 +27°C° 0 mm 3 mps 730 mmHg 76%
    09:00 +28°C° 0 mm 3 mps 730 mmHg 72%
    10:00 +30°C° 0 mm 3 mps 730 mmHg 64%
    11:00 +32°C° 0 mm 2 mps 730 mmHg 55%
    12:00 +35°C° 0 mm 2 mps 729 mmHg 47%
    13:00 +36°C° 0 mm 1 mps 728 mmHg 40%
    14:00 +39°C° 0 mm 1 mps 728 mmHg 32%
    15:00 +38°C° 0 mm 0 mps 727 mmHg 25%
    16:00 +37°C° 0 mm 0 mps 727 mmHg 26%
    17:00 +37°C° 0 mm 1 mps 727 mmHg 28%
    18:00 +36°C° 0 mm 1 mps 727 mmHg 29%
    19:00 +35°C° 0 mm 1 mps 727 mmHg 32%
    20:00 +33°C° 0 mm 1 mps 728 mmHg 34%
    21:00 +32°C° 0 mm 1 mps 729 mmHg 36%
    22:00 +31°C° 0 mm 2 mps 729 mmHg 44%
    23:00 +31°C° 0 mm 2 mps 729 mmHg 51%
    Show more